Regional Weather Roundup
Issued by NWS

Home | Current Version | Previous Version | Graphics & Text | Print | Product List | Glossary Off
Versions: 1 2 3 4 5 6 7 8 9 10 11 12 13 14 15 16 17 18 19 20 21 22 23 24 25 26 27 28 29 30 31 32 33 34 35 36 37 38 39 40 41 42 43 44 45 46 47 48 49 50

682
ASUS43 KMKX 300900
RWRWI

WISCONSIN REGIONAL WEATHER ROUNDUP
NATIONAL WEATHER SERVICE MILWAUKEE/SULLIVAN WI
400 AM CDT SUN APR 30 2017

NOTE: "FAIR" INDICATES FEW OR NO CLOUDS BELOW 12,000 FEET WITH NO
SIGNIFICANT WEATHER AND/OR OBSTRUCTIONS TO VISIBILITY.

WIZ001-002-006>008-014>016-023>028-301000-
NORTHWEST WISCONSIN

CITY           SKY/WX    TMP DP  RH WIND       PRES   REMARKS
SUPERIOR ARPT  CLOUDY    37  22  54 E9        30.23F WCI  31
ASHLAND        CLOUDY    35  28  75 NE8       30.23F WCI  29
HAYWARD        CLOUDY    37  21  52 N7        30.17F WCI  32
SIREN          CLOUDY    40  20  45 CALM      30.15F
CUMBERLAND     CLOUDY    39  19  45 NE8       30.14F WCI  34
RICE LAKE      CLOUDY    41  23  49 NE7       30.16F
CHETEK         NOT AVBL
LADYSMITH      MOCLDY    40  23  49 NE8       30.18R WCI  35
EAU CLAIRE     NOT AVBL
MENOMONIE      CLOUDY    44  25  48 NE10      30.11F
NEW RICHMOND   CLOUDY    42  24  49 NE9       30.12F
OSCEOLA        CLOUDY    42  26  53 NE7       30.16F
$$

WIZ003>005-009-010-017-018-301000-
NORTH CENTRAL WISCONSIN

CITY           SKY/WX    TMP DP  RH WIND       PRES   REMARKS
MANITOWISH WTR CLOUDY    36  21  55 NE7       30.19  WCI  30
ARBOR VITAE    MOCLDY    38  21  50 CALM      30.18S
WOODRUFF       MOCLDY    38  21  50 CALM      30.18S
RHINELANDER    MOCLDY    38  22  52 E9        30.16F WCI  31
EAGLE RIVER    MOCLDY    36  19  50 E7        30.18S WCI  31
LAND O LAKES   MOCLDY    36  21  54 NE5       30.21S WCI  32
PHILLIPS       CLOUDY    38  21  50 NE8       30.17S WCI  32
TOMAHAWK       MOCLDY    37  22  52 NE8       30.17F WCI  31
MEDFORD        CLOUDY    38  22  51 NE13      30.12F WCI  30
MERRILL        CLOUDY    39  23  52 E10       30.15F WCI  32
$$

WIZ029-030-035-036-043>047-301000-
CENTRAL WISCONSIN

CITY           SKY/WX    TMP DP  RH WIND       PRES   REMARKS
WAUSAU         MOCLDY    38  23  55 E12       30.11F WCI  30
MOSINEE        CLOUDY    37  23  56 NE15      30.13F WCI  28
MARSHFIELD     CLOUDY    40  23  50 E14       30.08F WCI  32
STEVENS POINT  CLOUDY    38  25  59 NE13G20   30.11F WCI  30
WAUPACA        CLOUDY    41  32  70 NE7G18    30.12F
WAUTOMA        CLOUDY    39  33  79 NE14G21   30.08F WCI  31
WISC RAPIDS    CLOUDY    41  28  60 E15G23    30.08F
CAMP DOUGLAS   NOT AVBL
$$

WIZ011>013-019>022-031-037>040-048>050-301000-
NORTHEAST WISCONSIN

CITY           SKY/WX    TMP DP  RH WIND       PRES   REMARKS
ANTIGO         CLOUDY    36  25  64 NE8       30.16S WCI  29
SHAWANO        CLOUDY    41  28  60 NE14      30.16F
OCONTO         CLOUDY    39  30  69 NE9G16    30.17F WCI  33
STURGEON BAY   LGT RAIN  39  31  72 NE12      30.16F WCI  32
GREEN BAY      CLOUDY    41  37  86 NE17      30.12F
MANITOWOC      NOT AVBL
APPLETON       CLOUDY    37  34  87 NE16G22   30.09F WCI  28
CLINTONVILLE   CLOUDY    39  27  60 NE12G21   30.14F WCI  32
OSHKOSH        LGT RAIN  40  36  86 NE18G26   30.07F WCI  31
$$

WIZ032>034-041-042-053>061-301000-
SOUTHWEST WISCONSIN

CITY           SKY/WX    TMP DP  RH WIND       PRES   REMARKS
LA CROSSE      CLOUDY    46  28  49 NE10      30.05F
SPARTA         CLOUDY    43  30  59 NE14G20   30.06F
VIROQUA        CLOUDY    40  32  73 NE18      30.00F WCI  31
BOSCOBEL       CLOUDY    42  36  79 NE9       30.02S
PRAIRIE DU CHI CLOUDY    43  34  71 NE10G16   29.99F
PLATTEVILLE    CLOUDY    40  40  97 NE17G26   29.95F WCI  32
$$

WIZ056-057-062-063-064-067-068-301000-
SOUTH CENTRAL WISCONSIN

CITY           SKY/WX    TMP DP  RH WIND       PRES   REMARKS
REEDSBURG      CLOUDY    37  37  97 NE16      30.02F WCI  28
BARABOO/DELLS  CLOUDY    37  36  94 NE13G22   30.03F WCI  29
LONE ROCK      CLOUDY    39  36  87 NE13G22   30.00F WCI  32
MINERAL POINT  CLOUDY    39  39 100 NE21      29.95F WCI  29
MADISON        CLOUDY    39  36  89 NE16G23   29.99F WCI  30
MIDDLETON      CLOUDY    40  38  91 NE14G24   29.99F WCI  32
WATERTOWN      CLOUDY    40  40 100 NE13G21   30.00F WCI  33
MONROE         CLOUDY    41  39  93 NE17G29   29.94S
JANESVILLE     CLOUDY    43  41  93 NE18G26   29.95F
$$

WIZ051-052-058>065-066-070>072-301000-
SOUTHEAST WISCONSIN

CITY           SKY/WX    TMP DP  RH WIND       PRES   REMARKS
MILWAUKEE      LGT RAIN  41  40  96 NE20G28   30.01F FOG
WAUKESHA       CLOUDY    37  36  93 NE20G26   30.01F FOG     WCI  27
MILWAUKEE/TIMM DRIZZLE   37  36  93 NE13G23   30.04S WCI  29
RACINE         CLOUDY    41  38  89 NE20G26   30.01F FOG
KENOSHA        CLOUDY    41  39  93 NE25G32   29.97F FOG
FOND DU LAC    CLOUDY    40  35  83 NE15G24   30.06F WCI  32
SHEBOYGAN      LGT RAIN  39  37  92 NE22G28   30.08S FOG     WCI  29
WEST BEND      CLOUDY    37  37 100 NE16G24   30.05S FOG     WCI  28
JUNEAU         CLOUDY    38  37  96 NE14      30.04F FOG     WCI  30
$$

LSZ147-162-301000-
LAKE SUPERIOR

STATION/POSITION TIME  TEMP    WIND        PRES    WAVE
                       AIR SEA DIR/SP/G            HT/PER
                 (UTC) (F)     (DEG/KT/KT) (MB)    (FT/S)
DEVILS ISLAND    0800   37      40/ 13/ 14 1025.3F
PORT WING        0840   37      60/  9/ 12 1023.7F
SAXON HARBOR     0830   37      30/  3/  4 1023.7F
$$

LMZ867-665-643>646-301000-
LAKE MICHIGAN

STATION/POSITION TIME  TEMP    WIND        PRES    WAVE
                       AIR SEA DIR/SP/G            HT/PER
                 (UTC) (F)     (DEG/KT/KT) (MB)    (FT/S)
CHAMBERS ISLAND  0840   39      30/ 12/ 16 1022.4F
N MID LAKE BUOY  0750   38 37   50/ 14/ 17 1024.0R   3/ 4
NORTHPORT PIER   0840   40      60/ 14/ 18 1022.4F
KEWAUNEE LAKESHO 0830   39      30/ 19/ 23 1020.2F
SHEBOYGAN LAKESH 0800   39      30/ 22/ 26 1019.1F
PORT WASHINGTON  0840   40      40/ 21/ 26 1018.3F
MILWAUKEE LAKESH 0830   40      30/ 22/ 25   N/A
S MID LAKE BUOY  0750   41 40   40/ 17/ 19 1016.0F   6/ 6
KENOSHA   LAKESH 0800   41      40/ 23/ 28 1015.6
$$

TC  - TEMPERATURE IN CELSIUS
VSB - VISIBILITY IN STATUTE MILES
WCI - WIND CHILL INDEX
HX  - HEAT INDEX





USA.gov is the U.S. government's official web portal to all federal, state and local government web resources and services.